GFSNE_con_mucape_141.txt.gz
CAPE
2261 2062 1801 1515 1365 1155 1028 761 429 567 465 308 337 66 26 48 69 18 10 11 16 21 21 3 0 12 0 4 8 12 16 20 58 70 58 125 114 30
2220 2063 1865 1616 1417 1388 1370 759 715 683 764 575 238 284 205 46 32 18 14 19 18 33 28 15 0 0 0 3 13 18 14 13 57 53 100 113 63 32
2153 1890 1810 1846 1571 1307 1250 930 580 672 769 729 716 355 162 171 42 4 13 20 42 19 31 39 9 4 0 0 4 23 27 27 62 104 138 123 87 74
1483 1364 1773 1520 1298 1329 1060 793 568 696 624 753 681 342 370 312 92 8 0 7 0 2 13 42 19 3 3 5 1 29 51 53 96 146 160 116 99 85
1071 891 956 1007 648 491 495 480 382 279 242 313 562 266 104 4 4 1 0 1 1 3 2 8 13 3 3 13 3 16 79 106 143 143 164 128 104 41
958 606 478 386 509 420 411 420 269 268 207 449 247 27 2 0 0 0 0 1 11 8 23 12 13 4 3 5 7 5 2 47 98 106 144 112 92 70
433 336 284 238 275 339 300 280 147 292 275 413 116 5 2 2 0 0 4 7 3 2 1 2 2 1 5 5 8 3 4 13 95 109 109 98 85 79
334 283 193 186 179 214 158 164 135 224 171 25 1 0 6 0 3 0 4 0 0 0 18 6 3 0 4 7 3 4 1 107 77 78 81 65 45 39
156 184 159 23 92 115 64 44 18 24 10 20 17 3 0 0 0 0 0 0 0 0 0 2 1 0 9 18 4 3 5 1 61 36 16 33 41 2
150 84 54 43 36 55 43 18 27 21 1 0 0 0 0 0 0 0 0 0 0 1 1 0 0 0 3 3 4 3 0 18 34 20 30 10 9 0
77 55 49 0 13 14 12 11 17 3 0 0 0 0 0 0 0 0 0 0 0 0 1 0 0 0 0 0 1 1 5 1 5 1 14 0 1 0
0 9 32 7 5 0 0 0 0 0 0 0 0 0 0 0 0 0 0 0 0 0 1 0 0 0 0 0 0 1 1 1 0 0 0 0 0 0
26 7 19 9 5 0 0 0 0 7 9 11 3 1 0 0 0 0 0 0 0 0 0 0 0 0 0 0 0 0 0 0 0 0 0 0 0 0
2 1 5 5 2 0 0 1 12 14 10 5 4 3 2 0 0 2 0 1 6 1 4 1 0 0 0 0 0 0 0 0 0 0 0 0 0 0
3 1 0 10 4 0 0 0 0 23 14 5 1 1 0 0 0 5 10 3 13 3 2 0 1 1 0 0 0 0 0 0 0 0 0 0 0 0
11 26 18 15 4 0 0 1 1 1 10 6 3 4 0 0 6 2 6 0 3 4 2 7 7 0 0 0 0 0 0 0 0 0 0 0 0 0
19 9 16 1 8 1 0 3 2 1 12 1 12 3 6 1 6 10 3 0 13 0 0 0 2 2 0 0 0 0 0 0 0 0 0 0 0 0
19 15 4 6 3 4 2 0 0 0 0 0 0 4 2 4 6 7 3 3 1 12 3 3 0 0 0 0 0 0 0 0 0 0 0 0 0 0
0 0 2 7 7 0 0 0 0 0 0 0 0 0 1 1 0 0 0 0 0 0 0 0 0 0 0 0 0 0 0 0 0 0 0 0 0 0
0 0 0 0 0 0 0 0 0 0 0 0 0 0 0 0 0 0 0 0 0 0 0 0 0 0 0 0 0 0 0 0 0 0 0 0 0 0
0 0 0 0 0 0 0 0 0 0 0 0 0 0 0 0 0 0 0 0 0 0 0 0 0 0 0 0 0 0 0 0 0 0 0 0 0 0
0 0 0 0 0 0 0 0 0 0 0 0 0 0 0 0 0 0 0 0 0 0 0 0 0 0 0 0 0 0 0 0 0 0 0 0 0 0
0 0 0 0 0 0 0 0 0 0 0 0 0 0 0 0 0 0 0 0 0 0 0 0 0 0 0 0 0 0 0 0 0 0 0 0 0 0

GFSNE_con_mucape_144.txt.gz
CAPE
960 1247 946 755 822 526 260 256 367 264 251 211 107 48 35 16 21 20 39 0 4 20 27 31 34 35 28 18 3 4 10 0 0 0 7 44 114 160
1517 1044 1325 834 943 581 488 419 314 353 200 320 243 202 137 28 12 9 26 26 16 16 22 37 44 46 25 25 15 14 3 5 5 7 12 26 71 122
1425 1575 1352 1248 1105 903 837 703 617 412 313 378 295 238 156 82 47 21 33 15 28 24 22 26 33 45 23 39 14 28 28 20 22 24 31 40 57 152
1478 1490 1491 1338 1144 884 835 685 562 425 361 353 298 169 132 102 73 49 26 6 1 17 8 17 16 17 41 23 37 17 16 48 55 51 64 83 95 141
845 1555 1510 1249 1117 1119 971 681 641 458 292 173 189 215 177 104 58 66 39 9 4 11 7 10 4 11 23 25 24 19 8 3 1 64 77 109 138 115
955 1059 1451 1318 1187 1116 948 776 583 460 326 367 293 145 129 81 27 21 1 6 5 2 9 17 14 15 11 21 27 27 15 4 4 3 1 58 70 86
905 1383 1512 1038 965 887 736 666 493 406 332 271 148 117 115 37 54 1 2 0 1 0 1 2 3 0 1 10 12 15 12 6 3 3 4 6 1 0
1241 1427 1056 916 616 460 383 312 360 348 270 223 10 41 61 24 2 0 3 5 0 0 0 0 0 0 0 5 5 6 10 9 3 1 3 4 1 0
1120 822 653 462 273 292 300 269 235 198 135 175 49 68 73 22 17 0 0 0 0 0 0 0 0 0 0 3 3 2 2 12 6 8 2 3 1 0
499 351 262 191 156 191 179 50 18 84 7 7 23 17 23 13 0 0 0 0 0 0 0 0 0 0 8 3 1 0 0 0 7 12 1 3 0 0
94 75 60 71 77 47 28 40 0 25 17 22 35 6 0 0 0 0 0 0 0 0 0 0 0 0 8 3 7 2 3 0 0 1 0 0 0 0
118 67 17 7 20 19 0 0 0 0 5 0 11 3 0 0 0 0 0 0 0 0 0 3 0 0 0 0 0 4 1 0 0 0 0 0 0 0
13 7 0 0 0 0 0 0 0 0 0 0 2 0 12 12 9 2 0 0 0 0 0 0 0 0 0 0 0 2 6 0 0 0 0 0 0 0
3 3 3 11 0 7 7 1 0 0 7 15 4 4 13 11 8 5 0 0 0 0 7 8 9 1 0 0 0 0 0 1 1 0 0 0 0 0
19 2 25 1 0 2 0 0 0 0 9 11 9 6 3 3 12 5 0 4 19 9 15 11 9 5 1 0 0 0 0 0 0 0 0 0 0 0
2 1 14 2 2 0 13 8 2 0 4 0 2 10 16 18 8 8 3 0 10 5 5 8 15 14 9 6 6 8 0 0 0 0 0 0 0 0
11 10 21 20 16 7 1 0 3 1 3 6 0 8 0 4 0 2 7 1 0 14 9 11 11 9 15 6 6 1 0 0 0 0 0 0 0 0
5 9 6 10 6 7 5 0 0 1 1 0 1 0 0 0 0 1 5 3 6 7 9 9 7 4 1 0 0 0 0 0 0 0 0 0 0 0
2 7 12 9 7 0 0 5 3 3 0 0 0 0 0 0 0 0 0 0 0 0 0 0 0 0 0 0 0 0 0 0 0 0 0 0 0 0
0 0 0 0 0 0 0 0 0 0 0 0 0 0 0 0 0 0 0 0 0 0 0 0 0 0 0 0 0 0 0 0 0 0 0 0 0 0
0 0 0 0 0 0 0 0 0 0 0 0 0 0 0 0 0 0 0 0 0 0 0 0 0 0 0 0 0 0 0 0 0 0 0 0 0 0
0 0 0 0 0 0 0 0 0 0 0 0 0 0 0 0 0 0 0 0 0 0 0 0 0 0 0 0 0 0 0 0 0 0 0 0 0 0
0 0 0 0 0 0 0 0 0 0 0 0 0 0 0 0 0 0 0 0 0 0 0 0 0 0 0 0 0 0 0 0 0 0 0 0 0 0

GFSNE_con_mucape_150.txt.gz
CAPE
642 615 521 532 550 447 636 501 201 183 188 96 41 23 49 52 22 2 0 0 0 0 0 0 0 0 0 9 33 30 20 11 22 8 13 11 16 70
612 584 495 506 521 433 497 591 595 237 162 149 119 57 33 43 37 44 14 7 11 14 14 3 0 0 5 18 25 34 62 38 35 22 10 22 19 4
280 472 509 502 502 465 417 601 623 522 349 218 150 107 51 22 36 74 42 44 31 33 27 15 13 3 3 9 15 33 41 43 47 70 62 54 21 9
0 224 385 449 494 495 493 408 516 578 515 340 232 236 156 71 49 47 68 88 96 47 24 2 4 3 7 14 21 25 28 24 7 25 57 49 44 13
1 1 164 472 471 489 512 446 365 441 570 373 223 268 203 149 125 138 83 83 47 18 4 4 1 2 10 10 16 19 22 19 23 18 24 25 27 16
5 0 94 429 427 467 518 536 326 410 651 497 224 205 223 210 189 195 99 46 19 9 4 1 5 3 3 1 3 13 25 22 11 19 20 20 14 20
0 0 0 540 606 526 553 530 440 582 614 472 339 296 298 307 274 295 178 61 54 28 10 6 3 0 3 0 2 2 3 1 1 3 1 2 7 7
0 0 0 362 612 721 722 741 611 577 535 409 392 328 422 439 451 361 198 85 68 205 62 4 0 0 4 0 0 0 0 0 0 0 0 0 0 6
45 52 151 441 820 833 941 940 893 667 582 538 373 348 491 432 392 331 207 120 88 64 35 29 9 0 0 0 0 0 0 0 0 0 0 0 0 0
363 242 255 376 457 497 573 690 776 788 820 573 480 401 329 331 262 175 176 151 110 49 16 15 21 3 0 0 0 0 0 0 0 0 0 0 0 0
30 186 348 282 328 347 314 476 656 576 500 402 412 247 140 120 100 48 82 41 4 19 0 24 30 0 0 0 0 0 0 0 0 0 0 0 0 0
1 8 11 56 229 177 274 433 385 240 12 65 380 179 131 83 48 38 1 0 0 0 2 3 0 0 0 0 0 0 0 0 0 0 0 0 0 0
17 10 7 0 109 94 41 55 33 37 34 34 32 12 8 14 1 16 8 22 0 8 5 4 4 0 0 0 0 0 2 0 0 0 0 0 0 0
13 1 7 31 18 23 39 22 13 4 18 21 1 0 0 0 0 15 18 29 14 6 2 6 0 1 0 0 0 0 2 1 0 0 0 0 0 0
5 3 2 0 4 28 23 17 3 11 10 1 1 0 0 2 2 40 26 27 9 13 2 9 18 1 0 0 0 0 0 1 7 0 0 0 0 0
6 24 8 7 3 14 11 0 0 10 0 2 0 0 0 5 3 13 19 20 18 7 3 7 12 7 0 0 0 0 0 0 5 1 1 3 0 0
7 0 0 0 0 0 0 0 0 4 1 11 2 1 7 4 3 0 0 0 0 5 7 7 11 5 6 0 0 0 7 4 9 7 1 0 0 0
0 0 0 0 0 0 0 0 0 0 0 9 0 2 6 1 0 4 2 2 12 14 3 1 2 0 0 2 1 0 2 3 0 0 0 0 0 0
0 0 0 0 5 1 0 11 26 1 6 0 3 0 0 4 15 12 5 11 8 8 7 3 0 0 0 0 0 0 0 0 0 0 0 0 0 0
0 4 3 6 4 5 3 2 0 0 0 1 0 1 7 4 0 0 0 0 0 0 0 0 0 0 0 0 0 0 0 0 0 0 0 0 0 0
0 0 3 1 3 5 7 6 0 0 0 2 3 1 1 0 0 0 0 0 0 0 0 0 0 0 0 0 0 0 0 0 0 0 0 0 0 0
0 0 0 0 0 0 0 0 0 0 0 0 0 0 0 0 0 0 0 0 0 0 0 0 0 0 0 0 0 0 0 0 0 0 0 0 0 0
0 0 0 0 0 0 0 0 0 0 0 0 0 0 0 0 0 0 0 0 0 0 0 0 0 0 0 0 0 0 0 0 0 0 0 0 0 0

GFSNE_con_mucape_156.txt.gz
CAPE
0 18 77 39 57 294 328 294 242 127 146 199 158 67 490 569 241 195 185 127 35 0 0 0 1 11 17 30 33 53 55 31 17 20 6 3 29 45
1 39 165 64 3 11 240 349 344 213 126 60 53 77 122 460 145 24 70 208 161 37 5 5 0 1 3 7 13 38 46 50 52 50 43 41 30 15
2 59 110 58 80 16 84 203 344 347 219 129 72 71 32 91 89 20 167 89 110 79 25 18 0 0 0 0 1 8 16 25 55 49 51 55 56 45
125 97 106 70 11 0 0 39 117 230 400 259 109 115 41 15 95 101 80 16 34 46 44 29 15 0 0 0 0 8 18 19 15 27 36 41 33 56
80 52 45 77 11 0 2 0 57 248 278 283 136 152 71 41 121 100 61 80 21 28 46 34 26 16 2 0 3 4 16 21 19 7 18 25 31 41
58 32 20 25 22 0 2 153 160 218 206 295 250 157 135 100 145 81 53 34 39 24 21 33 48 39 34 26 15 17 16 6 2 1 12 11 1 0
19 46 18 0 2 24 1 89 69 217 157 244 204 193 165 131 91 115 200 124 72 31 18 30 31 59 53 53 25 5 0 1 3 0 0 0 0 0
1 9 26 12 1 7 58 141 202 218 182 140 150 138 142 161 166 236 278 139 87 77 55 57 49 39 51 45 16 1 1 2 10 5 0 0 0 0
4 21 13 30 7 0 14 67 152 266 180 183 116 91 118 162 245 274 315 277 143 143 118 97 115 123 84 66 28 11 4 2 17 5 0 0 0 0
4 0 7 23 15 1 3 19 36 95 275 277 176 124 107 142 154 203 259 254 200 143 131 119 160 170 162 105 55 26 14 41 12 7 14 0 0 0
3 4 8 17 16 0 0 0 4 14 0 91 232 217 162 138 213 196 117 82 104 137 142 156 143 67 180 54 16 6 5 21 7 2 1 0 0 0
0 8 2 6 4 1 0 1 9 6 0 7 148 279 242 260 274 207 225 175 186 151 83 159 102 0 17 19 37 13 2 13 9 1 0 0 0 0
0 0 1 2 2 4 1 0 0 12 10 8 41 264 290 500 331 400 378 327 229 204 159 112 113 47 74 0 1 0 0 8 11 3 0 0 0 0
0 0 1 13 5 4 11 8 10 4 1 1 53 151 299 349 320 352 366 143 51 187 107 61 32 4 1 0 0 0 1 1 3 0 0 0 0 0
0 0 0 0 1 0 21 25 58 19 2 0 1 63 106 145 264 118 7 1 3 11 5 4 0 0 0 0 0 0 0 0 0 0 0 0 0 0
0 0 0 0 0 1 19 59 37 72 34 14 1 8 29 9 92 6 1 0 0 2 0 0 0 0 0 0 0 0 0 0 0 0 0 0 0 0
0 0 0 0 0 0 0 0 12 0 0 8 1 7 9 14 0 0 0 0 0 0 0 0 0 3 2 2 1 0 2 3 2 3 4 0 0 2
0 0 0 0 5 3 1 1 0 0 0 0 0 0 0 0 0 0 0 0 0 0 0 8 2 0 1 0 0 0 1 2 3 1 0 0 0 2
0 0 0 0 0 0 0 2 0 0 0 0 0 2 0 0 1 0 5 5 5 3 0 0 0 0 0 0 0 0 0 0 0 0 0 4 0 0
0 0 0 0 0 0 0 0 0 0 0 0 0 0 0 0 0 0 0 0 0 1 0 0 0 0 0 0 5 1 0 1 0 0 0 0 0 0
0 0 0 0 1 0 0 0 0 0 0 0 0 0 0 0 0 0 0 0 0 0 0 0 0 0 0 0 0 0 0 0 0 0 0 0 0 0
0 0 0 0 0 0 0 0 0 0 0 0 0 0 0 0 0 0 0 0 0 0 0 0 0 0 0 0 0 0 0 0 0 0 0 0 0 0
0 0 0 0 0 0 0 0 0 0 0 0 0 0 0 0 0 0 0 0 0 0 0 0 0 0 0 0 0 0 0 0 0 0 0 0 0 0